SWA2131 KPHX-KDSM

Flight info

Callsign SWA2131
Flight time N/A
Altitude 37000
Route MRBIL1 JARPA RSK SYTHH DSM
Aircraft B738/M-SDE2E3FGHIRWXY/LB1

Departure

Time N/A
Airport Phoenix Sky Harbor International Airport (KPHX)

Arrival

Time 2026-04-28 03:27
Airport Des Moines International Airport (KDSM)
Time Latitude Longitude Altitude Speed Heading
2026-04-28 03:07 41.37804 -93.98055 36884 ft 472 kts 76°
2026-04-28 03:07 41.39359 -93.89518 36388 ft 480 kts 76°
2026-04-28 03:07 41.40138 -93.85223 35658 ft 486 kts 76°
2026-04-28 03:08 41.40937 -93.80806 34981 ft 491 kts 76°
2026-04-28 03:08 41.41742 -93.76354 34305 ft 495 kts 76°
2026-04-28 03:08 41.42553 -93.71858 33589 ft 499 kts 76°
2026-04-28 03:08 41.43365 -93.67347 32800 ft 502 kts 76°
2026-04-28 03:09 41.44096 -93.62836 32010 ft 505 kts 83°
2026-04-28 03:09 41.44079 -93.58155 31254 ft 505 kts 101°
2026-04-28 03:09 41.43140 -93.53682 30531 ft 500 kts 117°
2026-04-28 03:09 41.41379 -93.49733 29783 ft 491 kts 133°
2026-04-28 03:10 41.38969 -93.46593 28948 ft 480 kts 149°
2026-04-28 03:10 41.36119 -93.44420 28121 ft 466 kts 164°
2026-04-28 03:10 41.33083 -93.43287 27329 ft 452 kts 178°
2026-04-28 03:10 41.29990 -93.43144 26547 ft 439 kts 192°
2026-04-28 03:11 41.27046 -93.43930 25800 ft 426 kts 204°
2026-04-28 03:11 41.24388 -93.45527 25072 ft 415 kts 216°
2026-04-28 03:11 41.22105 -93.47803 24355 ft 406 kts 228°
2026-04-28 03:11 41.20239 -93.50565 23665 ft 399 kts 236°
2026-04-28 03:12 41.18772 -93.53605 22862 ft 384 kts 246°
2026-04-28 03:12 41.17848 -93.56855 22051 ft 370 kts 257°
2026-04-28 03:12 41.17237 -93.60120 21282 ft 360 kts 258°
2026-04-28 03:12 41.16663 -93.63322 20510 ft 352 kts 258°
2026-04-28 03:13 41.16096 -93.66446 19771 ft 346 kts 258°
2026-04-28 03:13 41.15531 -93.69488 19053 ft 339 kts 258°
2026-04-28 03:13 41.14963 -93.72500 18346 ft 334 kts 258°
2026-04-28 03:13 41.14450 -93.75479 17558 ft 328 kts 265°
2026-04-28 03:14 41.14470 -93.78481 16787 ft 322 kts 276°
2026-04-28 03:14 41.14863 -93.81392 16032 ft 319 kts 282°
2026-04-28 03:14 41.15480 -93.84209 15264 ft 317 kts 288°
2026-04-28 03:14 41.16352 -93.86885 14539 ft 316 kts 295°
2026-04-28 03:15 41.17521 -93.89310 13840 ft 316 kts 304°
2026-04-28 03:15 41.19021 -93.91449 13072 ft 318 kts 314°
2026-04-28 03:15 41.20806 -93.93208 12310 ft 321 kts 324°
2026-04-28 03:15 41.22815 -93.94535 11561 ft 323 kts 334°
2026-04-28 03:16 41.24979 -93.95385 10822 ft 326 kts 343°
2026-04-28 03:16 41.27255 -93.95726 10100 ft 329 kts 353°
2026-04-28 03:16 41.29518 -93.95533 9363 ft 332 kts
2026-04-28 03:16 41.31772 -93.94787 8595 ft 334 kts 14°
2026-04-28 03:17 41.33895 -93.93505 7840 ft 336 kts 25°
2026-04-28 03:17 41.37481 -93.89498 6400 ft 338 kts 45°
2026-04-28 03:17 41.38900 -93.87062 5653 ft 337 kts 52°
2026-04-28 03:18 41.40028 -93.84330 4894 ft 337 kts 64°
2026-04-28 03:18 41.40716 -93.81346 4138 ft 335 kts 71°
2026-04-28 03:18 41.41288 -93.78347 3553 ft 327 kts 73°
2026-04-28 03:18 41.41813 -93.75494 3350 ft 307 kts 72°
2026-04-28 03:19 41.42309 -93.72812 3205 ft 289 kts 73°
2026-04-28 03:19 41.42468 -93.70211 3050 ft 277 kts 90°
2026-04-28 03:19 41.42313 -93.67709 3009 ft 265 kts 93°
2026-04-28 03:19 41.42142 -93.65343 2990 ft 257 kts 92°
2026-04-28 03:20 41.41999 -93.62966 3000 ft 254 kts 91°
2026-04-28 03:20 41.41755 -93.60643 2983 ft 255 kts 110°
2026-04-28 03:20 41.40743 -93.58742 3025 ft 252 kts 134°
2026-04-28 03:20 41.39547 -93.57039 3002 ft 256 kts 134°
2026-04-28 03:21 41.38321 -93.55290 2995 ft 258 kts 132°
2026-04-28 03:21 41.37291 -93.53319 2992 ft 259 kts 117°
2026-04-28 03:21 41.36930 -93.51036 2985 ft 249 kts 77°
2026-04-28 03:21 41.37628 -93.49063 2966 ft 230 kts 36°
2026-04-28 03:22 41.38960 -93.48247 2984 ft 206 kts 355°
2026-04-28 03:22 41.40219 -93.48840 2977 ft 188 kts 312°
2026-04-28 03:22 41.40808 -93.50330 3005 ft 184 kts 292°
2026-04-28 03:22 41.41423 -93.51845 3005 ft 187 kts 308°
2026-04-28 03:23 41.42479 -93.52760 2994 ft 183 kts 344°
2026-04-28 03:23 41.43690 -93.53003 2976 ft 164 kts 329°
2026-04-28 03:23 41.44448 -93.53938 3003 ft 150 kts 313°
2026-04-28 03:23 41.45269 -93.54847 3011 ft 155 kts 318°
2026-04-28 03:24 41.46079 -93.55728 2995 ft 142 kts 317°
2026-04-28 03:24 41.46844 -93.56557 2814 ft 144 kts 317°
2026-04-28 03:24 41.47595 -93.57396 2541 ft 135 kts 315°
2026-04-28 03:24 41.48233 -93.58237 2367 ft 124 kts 312°
2026-04-28 03:25 41.48800 -93.59041 2197 ft 115 kts 311°
2026-04-28 03:25 41.49331 -93.59811 2032 ft 112 kts 310°
2026-04-28 03:25 41.49849 -93.60599 1835 ft 112 kts 307°
2026-04-28 03:25 41.50390 -93.61391 1675 ft 117 kts 308°
2026-04-28 03:26 41.50938 -93.62188 1528 ft 116 kts 309°
2026-04-28 03:26 41.51469 -93.62961 1355 ft 111 kts 310°
2026-04-28 03:26 41.51981 -93.63677 1210 ft 103 kts 310°
2026-04-28 03:26 41.52466 -93.64408 1109 ft 109 kts 310°
2026-04-28 03:27 41.52975 -93.65133 980 ft 104 kts 309°
2026-04-28 03:27 41.53412 -93.65768 947 ft 75 kts 312°
2026-04-28 03:27 41.53674 -93.66151 938 ft 44 kts 312°
2026-04-28 03:27 41.53791 -93.66322 940 ft 16 kts 312°
2026-04-28 03:28 41.53865 -93.66359 939 ft 11 kts 24°
2026-04-28 03:28 41.53902 -93.66278 939 ft 11 kts 95°
2026-04-28 03:28 41.53857 -93.66202 940 ft 10 kts 133°
2026-04-28 03:28 41.53807 -93.66131 939 ft 11 kts 133°
2026-04-28 03:29 41.53755 -93.66053 939 ft 11 kts 131°
2026-04-28 03:29 41.53704 -93.65976 941 ft 11 kts 132°
2026-04-28 03:29 41.53648 -93.65896 942 ft 14 kts 134°
2026-04-28 03:29 41.53551 -93.65752 944 ft 32 kts 130°
2026-04-28 03:30 41.53371 -93.65485 948 ft 40 kts 131°
2026-04-28 03:30 41.53235 -93.65283 950 ft 16 kts 133°
2026-04-28 03:30 41.53161 -93.65177 954 ft 15 kts 133°
2026-04-28 03:30 41.53149 -93.65128 954 ft 1 kts 56°
2026-04-28 03:31 41.53195 -93.65131 951 ft 14 kts 344°
2026-04-28 03:31 41.53309 -93.65142 950 ft 19 kts
2026-04-28 03:31 41.53402 -93.65151 948 ft 10 kts 359°
2026-04-28 03:31 41.53424 -93.65135 948 ft 9 kts 44°
2026-04-28 03:32 41.53433 -93.65100 948 ft 0 kts 90°